This is the latest recevied weather packets stored in our database for station/object KC0AFB. If no packets are shown the sender has not sent any weather packets the latest 10 day(s).
| Time | Temp. | Humidity | Pressure | Rain* | Wind** | Luminosity | Snow |
|---|---|---|---|---|---|---|---|
| 1778076167 | 1.67° C | 67% | 1018.3 hPa | 0 mm | - | 209 W/m² | - |
| 1778075864 | 1.67° C | 69% | 1018.3 hPa | 0 mm | - | 196 W/m² | - |
| 1778075560 | 1.11° C | 68% | 1018.7 hPa | 0 mm | - | 202 W/m² | - |
| 1778075257 | 1.11° C | 70% | 1018.7 hPa | 0 mm | - | 163 W/m² | - |
| 1778074953 | 0.56° C | 72% | 1018.5 hPa | 0 mm | - | 159 W/m² | - |
| 1778074651 | 0° C | 73% | 1018.5 hPa | 0 mm | - | 139 W/m² | - |
| 1778074347 | 0° C | 74% | 1018.7 hPa | 0 mm | - | 131 W/m² | - |
| 1778074044 | 0° C | 76% | 1018.6 hPa | 0 mm | - | 126 W/m² | - |
| 1778073741 | 0° C | 76% | 1018.6 hPa | 0 mm | - | 115 W/m² | - |
| 1778073439 | -0.56° C | 77% | 1018.6 hPa | 0 mm | - | 110 W/m² | - |
| 1778073135 | -0.56° C | 78% | 1018.6 hPa | 0 mm | - | 102 W/m² | - |
| 1778072832 | -0.56° C | 79% | 1018.6 hPa | 0 mm | - | 97 W/m² | - |
| 1778072529 | -1.11° C | 80% | 1018.7 hPa | 0 mm | - | 88 W/m² | - |
| 1778072226 | -1.11° C | 80% | 1018.3 hPa | 0 mm | - | 78 W/m² | - |
| 1778071924 | -1.11° C | 80% | 1018.6 hPa | 0 mm | - | 68 W/m² | - |
| 1778071622 | -1.11° C | 78% | 1018.3 hPa | 0 mm | - | 60 W/m² | - |
| 1778071320 | -1.11° C | 76% | 1018.5 hPa | 0 mm | - | 54 W/m² | - |
| 1778071017 | -1.67° C | 76% | 1018.1 hPa | 0 mm | - | 53 W/m² | - |
| 1778070716 | -1.67° C | 77% | 1018.1 hPa | 0 mm | - | 48 W/m² | - |
| 1778070412 | -1.67° C | 77% | 1018.1 hPa | 0 mm | - | 44 W/m² | - |
| 1778070110 | -2.22° C | 77% | 1018.1 hPa | 0 mm | - | 38 W/m² | - |
| 1778069807 | -2.22° C | 77% | 1018.2 hPa | 0 mm | - | 32 W/m² | - |
| 1778069503 | -2.22° C | 77% | 1018 hPa | 0 mm | - | 26 W/m² | - |
| 1778069202 | -2.22° C | 76% | 1018.1 hPa | 0 mm | - | 21 W/m² | - |
| 1778068898 | -2.22° C | 76% | 1017.9 hPa | 0 mm | - | 19 W/m² | - |
* Rain latest hour (hover to see other rain measurements)
** Current wind speed in m/s (hover to see current wind gust speed)